Overview Statistics Trail Chart Weather Telemetry Raw packets
 

This is the latest recevied weather packets stored in our database for station/object KD4EG. If no packets are shown the sender has not sent any weather packets the latest 10 day(s).

<< 93 94 95 96 97 98 99 >>
Time Temp. Humidity Pressure Rain* Wind** Luminosity Snow
1787924726 22.22° C 87% 1020.3 hPa 0 mm - 468 W/m² -
1787924426 22.22° C 88% 1020.3 hPa 0 mm - 299 W/m² -
1787924121 21.67° C 89% 1020.4 hPa 0 mm - 147 W/m² -
1787923815 21.67° C 89% 1020.5 hPa 0 mm - 321 W/m² -
1787923510 21.67° C 89% 1020.4 hPa 0 mm - 261 W/m² -
1787923206 21.67° C 90% 1020.4 hPa 0 mm - 308 W/m² -
1787922901 21.67° C 90% 1020.3 hPa 0 mm - 109 W/m² -
1787922600 21.67° C 90% 1020.3 hPa 0 mm - 212 W/m² -
1787922299 21.67° C 90% 1020.2 hPa 0 mm - 127 W/m² -
1787921996 21.67° C 90% 1020.2 hPa 0 mm - 161 W/m² -
1787921691 21.67° C 90% 1020.1 hPa 0 mm - 223 W/m² -
1787921391 21.67° C 89% 1020.3 hPa 0 mm - 142 W/m² -
1787921087 21.67° C 89% 1020 hPa 0 mm - 122 W/m² -
1787920787 21.67° C 90% 1020.2 hPa 0 mm - 232 W/m² -
1787920487 21.67° C 90% 1020.1 hPa 0 mm - 258 W/m² -
1787920184 21.11° C 91% 1019.8 hPa 0 mm - 284 W/m² -
1787919879 20.56° C 92% 1019.9 hPa 0 mm - 121 W/m² -
1787919577 20.56° C 93% 1020.1 hPa 0 mm - 102 W/m² -
1787919274 20° C 94% 1019.8 hPa 0 mm - 77 W/m² -
1787918969 20° C 94% 1019.7 hPa 0 mm - 61 W/m² -
1787918663 20° C 94% 1020 hPa 0 mm - 53 W/m² -
1787918361 20° C 94% 1019.9 hPa 0 mm - 53 W/m² -
1787918056 20° C 94% 1019.8 hPa 0 mm - 52 W/m² -
1787917751 20° C 95% 1019.8 hPa 0 mm - 57 W/m² -
1787917448 19.44° C 95% 1019.8 hPa 0 mm - 55 W/m² -

* Rain latest hour (hover to see other rain measurements)
** Current wind speed in m/s (hover to see current wind gust speed)